Location: Borealis Mine
(38.3824°N, 118.7610°W)
Time: 16:36:37
(UTC+00:00)

Cosmos 1763 Rocket - Pass Details

Date: 18 September 2020
Orbit: 733 x 779 km, 74.0° (Epoch: 19 October)

Event Time Altitude Azimuth Distance (km) Brightness Sun altitude
Exits shadow 12:57:31 - 216° (SW) 3,205 6.3 -9.1°
Reaches altitude 10° 12:59:54 10° 222° (SW) 2,323 5.5 -8.6°
Maximum altitude 13:04:54 42° 293° (WNW) 1,100 4.0 -7.6°
Drops below altitude 10° 13:09:56 10° 5° (N) 2,336 6.2 -6.7°
Sets 13:12:27 0° 12° (NNE) 3,264 7.0 -6.2°
